Wind_Speed
7 8 9 10 11 11 12 13 15 17 18 19 20 21 22 23 24 25 26 28 29 30 31 32 33 35 36 37 37 38 38 38 38 38 38 37 37 36 37 37 37 38 38
10 11 12 13 13 14 15 16 18 19 20 22 23 24 25 27 29 30 31 32 33 34 35 36 37 38 39 40 41 42 43 43 44 44 44 45 44 44 44 45 45 46 46
15 17 19 20 20 20 20 21 22 23 24 25 26 28 29 30 31 33 34 35 37 38 39 39 40 41 41 42 42 43 44 46 47 48 49 50 50 51 51 51 52 52 52
21 23 25 27 27 27 27 26 26 27 27 28 30 32 33 34 36 37 38 39 41 42 42 42 42 42 42 42 43 44 44 45 46 47 49 51 52 53 54 55 55 55 54
27 28 30 32 34 34 32 31 31 31 31 32 33 35 37 39 40 40 41 42 43 44 45 45 44 44 44 45 46 47 48 49 50 50 51 52 52 53 53 53 54 54 54
32 33 34 35 37 36 34 32 31 32 33 34 36 39 41 42 42 43 44 45 45 46 46 46 47 48 49 50 50 51 52 53 54 54 54 54 54 54 55 55 55 54 53
34 35 35 35 34 31 28 28 29 32 34 37 39 41 43 43 44 45 46 47 47 48 49 50 51 52 53 55 56 57 58 58 58 58 57 56 56 56 56 56 56 55 54
33 33 33 33 30 30 30 32 34 36 37 39 40 42 43 44 45 47 48 49 50 51 53 54 56 57 58 59 60 61 62 61 60 59 58 57 57 56 56 57 57 56 55
29 29 30 32 34 37 37 37 38 39 41 42 42 43 44 46 48 49 50 52 54 55 57 58 60 61 62 62 62 62 61 61 60 59 58 58 59 59 59 58 58 57 56
26 27 31 35 37 38 39 40 42 43 44 45 45 47 48 50 51 52 53 55 57 59 60 61 61 62 63 63 63 63 62 62 62 62 62 62 62 62 62 62 61 60 59
26 30 33 36 39 41 43 44 45 46 47 48 49 50 51 53 55 56 56 58 59 61 62 62 62 63 64 64 64 65 65 66 67 67 67 67 67 66 65 64 64 63 62
30 34 37 40 42 45 47 47 48 49 50 52 54 56 57 58 60 60 60 60 60 61 62 63 64 65 67 68 68 69 71 72 72 73 73 73 72 70 69 67 66 65 64
34 38 41 43 46 49 50 51 52 53 55 58 59 61 61 62 62 63 63 62 62 61 61 63 67 69 70 71 72 74 75 76 76 77 77 76 75 73 72 70 69 67 66
39 43 45 48 50 52 53 55 56 58 61 63 63 63 62 62 63 63 64 65 65 64 63 65 67 70 72 73 74 75 76 77 77 77 76 76 75 74 73 72 71 70 67
44 47 50 52 54 56 58 60 61 64 65 65 64 63 62 63 64 65 66 68 69 67 65 67 70 72 74 75 76 76 76 75 75 74 73 73 72 72 72 71 71 70 69
49 52 54 56 59 60 62 64 66 67 66 65 64 63 64 65 65 66 67 68 69 69 67 67 70 73 75 76 76 75 74 72 70 68 66 65 64 64 65 65 66 66 66
52 54 57 59 62 64 66 67 68 67 65 64 65 65 65 64 64 64 65 66 68 69 69 68 70 72 72 72 70 68 65 61 58 55 53 52 52 52 52 53 55 57 59
54 57 60 62 64 66 67 67 66 65 64 64 65 64 63 62 62 64 65 66 68 70 70 69 67 65 62 60 57 53 50 47 43 41 40 40 40 41 41 42 43 45 47
56 59 61 64 65 66 66 64 63 63 63 63 62 61 61 62 62 63 65 66 66 66 65 62 56 51 46 44 41 38 36 34 32 31 31 31 32 32 32 33 33 35 37
58 60 62 63 63 63 62 61 62 62 61 60 60 60 61 61 62 62 63 62 60 57 53 48 42 37 34 32 30 27 26 26 26 25 24 24 24 25 25 26 26 28 30
59 60 60 60 59 60 60 61 61 60 59 59 59 59 60 60 60 59 57 53 49 44 38 33 29 26 25 24 23 21 20 21 22 21 19 19 19 19 20 21 22 23 25
57 57 57 57 58 58 59 59 59 58 57 57 57 57 57 56 53 50 46 43 37 31 26 23 21 21 20 19 19 18 17 17 18 16 14 15 14 15 15 16 17 18 20
54 55 56 56 57 57 56 56 56 56 56 55 54 53 50 47 43 39 34 30 26 23 21 19 18 18 18 18 17 17 16 15 15 14 13 13 12 12 12 12 13 14 16
52 53 54 54 54 54 54 54 54 54 53 51 48 45 41 38 32 27 23 21 20 20 19 19 19 18 18 18 17 17 16 16 15 14 13 12 11 10 9 9 10 11 12
50 51 51 51 51 52 52 51 51 50 47 44 40 36 32 26 21 18 17 17 18 19 20 20 20 20 20 20 20 19 18 17 16 16 13 11 10 9 8 8 8 9 10
48 49 49 49 49 49 49 47 45 42 38 36 32 30 24 17 15 15 15 16 18 19 20 21 21 21 20 20 19 18 17 16 16 16 15 13 12 11 10 10 11 11 11
Wind_Direction
300 299 301 302 302 302 302 301 300 299 299 300 300 298 297 296 294 293 291 289 287 285 283 282 282 282 282 281 280 280 279 279 278 276 275 274 272 271 271 272 273 275 278
304 305 304 302 300 299 299 300 301 304 307 308 308 306 303 300 296 292 289 287 286 284 282 282 281 281 281 281 281 280 279 278 277 276 275 275 273 271 271 271 272 274 276
296 296 295 293 292 291 291 292 294 298 301 304 305 305 304 301 298 295 293 292 290 288 286 284 283 281 281 281 281 280 279 278 277 276 275 275 273 272 272 272 272 273 273
285 286 287 287 287 285 284 285 289 291 293 296 299 300 301 300 299 297 296 295 294 293 291 289 287 285 284 283 282 282 281 281 279 278 276 275 274 273 272 271 271 271 271
278 279 281 283 283 282 281 283 285 288 290 294 297 299 300 299 298 297 296 296 295 294 293 292 290 288 286 285 283 282 281 280 279 278 277 275 274 273 272 271 270 269 269
274 276 280 284 287 284 281 282 286 289 292 295 298 299 300 299 298 297 296 296 295 294 292 291 290 289 287 286 284 282 281 279 278 277 276 275 275 274 274 273 272 271 269
276 279 282 287 288 283 281 284 290 295 297 299 300 299 299 298 298 297 296 295 294 292 291 290 289 288 287 286 284 283 281 280 279 277 276 275 275 274 274 274 273 271 268
278 277 281 285 286 291 297 300 303 304 304 303 301 299 298 297 297 296 295 293 292 290 290 289 289 288 287 285 283 282 281 280 279 278 276 276 275 274 273 272 271 269 267
276 279 286 292 300 306 307 307 308 306 305 304 302 300 298 296 295 295 293 292 291 290 290 289 289 288 286 284 282 281 280 279 278 277 277 276 276 275 274 272 270 267 264
285 291 299 304 307 308 308 309 308 307 306 304 302 300 297 296 295 294 293 292 291 291 290 290 289 287 285 283 282 280 279 278 278 277 277 277 276 274 273 272 269 266 263
298 300 303 306 307 308 308 308 308 308 306 305 303 302 299 297 296 294 293 292 292 292 292 291 289 287 285 283 282 280 279 278 278 277 277 276 275 273 272 270 268 265 263
302 304 307 308 308 308 308 308 308 307 306 305 304 302 300 298 296 295 293 291 292 293 293 291 289 287 285 284 282 281 280 279 278 277 276 275 274 272 270 268 266 264 262
303 305 306 306 307 307 307 306 306 305 305 304 303 302 301 299 297 296 295 294 293 293 293 291 289 287 285 284 283 282 281 280 279 278 277 276 274 272 270 268 265 263 261
302 303 304 305 306 306 305 304 304 304 304 304 303 302 301 300 299 298 297 296 295 294 292 289 287 286 285 284 284 283 282 281 280 279 278 277 275 272 270 268 265 263 261
299 301 302 303 303 303 303 303 303 303 304 304 303 302 301 300 300 299 297 296 295 293 291 288 286 285 285 285 285 284 284 283 283 281 279 277 275 273 270 268 265 263 260
298 299 300 301 302 302 301 301 302 303 304 304 303 302 301 301 300 299 298 296 295 294 293 290 288 287 286 287 287 287 286 286 284 283 281 279 276 273 270 267 263 260 257
297 298 299 299 300 300 300 301 301 302 303 302 302 302 302 302 300 299 298 297 296 295 294 293 291 290 290 289 289 289 289 288 286 284 281 278 275 271 268 264 260 256 252
296 297 297 298 298 298 299 300 301 302 302 303 304 304 303 302 301 300 299 298 297 297 296 295 295 294 293 292 292 291 290 290 288 286 282 278 274 271 268 265 261 256 251
296 296 296 297 297 298 299 300 301 302 303 304 305 304 303 302 302 301 300 300 300 300 300 301 300 299 297 295 295 295 295 294 291 287 285 282 277 274 271 268 263 257 252
295 296 296 296 297 298 299 300 302 303 305 305 304 304 303 303 302 302 302 303 303 304 305 305 305 303 302 302 302 302 301 298 296 295 292 288 284 280 276 270 263 258 252
295 295 296 296 297 299 300 302 303 304 304 304 304 304 303 303 303 304 306 307 308 310 311 311 310 309 309 309 309 308 307 304 303 304 301 293 288 284 279 272 264 258 252
294 295 296 297 298 299 301 302 303 303 303 303 303 303 303 304 306 309 310 311 314 317 319 319 319 319 319 319 318 316 315 312 310 312 308 299 292 284 278 272 265 258 252
294 295 296 296 298 300 301 301 302 302 302 302 302 303 304 307 309 310 311 315 320 325 328 328 327 325 325 324 323 321 320 319 316 314 311 305 301 293 286 277 269 263 255
294 295 296 297 298 299 300 300 300 300 301 301 302 304 307 309 310 311 315 319 323 326 328 330 330 329 328 327 325 322 319 317 314 311 311 309 307 301 295 286 275 267 257
294 295 296 297 297 298 299 299 299 300 301 302 304 306 309 309 310 315 319 322 325 327 329 330 330 329 327 325 322 318 315 312 307 304 303 301 301 298 293 288 282 272 262
294 295 296 297 298 298 299 299 300 301 302 304 305 308 310 312 316 321 324 325 327 328 330 330 330 330 330 330 329 327 324 317 309 301 295 288 282 283 284 282 279 275 266
Height
5866 5865 5864 5863 5862 5861 5860 5859 5858 5857 5856 5855 5854 5853 5852 5851 5850 5850 5849 5848 5847 5846 5845 5844 5843 5842 5841 5839 5838 5836 5835 5834 5833 5833 5833 5834 5834 5835 5835 5835 5836 5837 5837
5864 5863 5861 5860 5859 5858 5857 5855 5854 5852 5851 5850 5849 5847 5846 5846 5845 5844 5842 5841 5839 5838 5837 5836 5834 5833 5831 5830 5829 5828 5826 5825 5825 5824 5824 5824 5825 5825 5825 5826 5826 5827 5827
5860 5859 5857 5855 5854 5852 5851 5850 5849 5847 5846 5844 5843 5842 5841 5840 5838 5837 5835 5833 5831 5829 5827 5826 5824 5823 5821 5820 5818 5817 5816 5815 5814 5813 5813 5812 5813 5813 5813 5814 5814 5815 5816
5855 5853 5851 5849 5847 5846 5844 5843 5842 5840 5839 5838 5837 5835 5834 5832 5830 5828 5826 5823 5821 5819 5816 5814 5813 5811 5809 5808 5806 5805 5803 5802 5801 5800 5800 5799 5799 5799 5800 5800 5801 5802 5803
5847 5846 5844 5842 5840 5838 5837 5835 5834 5833 5831 5830 5829 5827 5825 5822 5820 5818 5815 5813 5810 5807 5805 5802 5800 5798 5797 5795 5793 5792 5790 5789 5788 5787 5786 5785 5785 5785 5785 5785 5786 5787 5788
5839 5837 5835 5833 5831 5830 5829 5828 5827 5826 5824 5822 5820 5817 5815 5812 5810 5807 5804 5802 5799 5796 5793 5791 5788 5786 5784 5782 5780 5778 5776 5775 5773 5772 5771 5770 5770 5770 5769 5769 5770 5771 5772
5830 5828 5826 5825 5823 5822 5822 5821 5820 5818 5817 5814 5811 5808 5805 5802 5799 5796 5793 5790 5787 5784 5781 5778 5775 5773 5770 5768 5765 5763 5761 5759 5757 5756 5755 5754 5754 5753 5753 5753 5753 5754 5756
5822 5821 5819 5818 5816 5815 5813 5812 5812 5810 5808 5805 5802 5799 5795 5793 5789 5786 5782 5778 5774 5771 5768 5765 5761 5758 5755 5752 5749 5746 5744 5742 5740 5739 5738 5737 5736 5736 5736 5735 5736 5737 5739
5815 5814 5813 5810 5809 5807 5806 5804 5803 5801 5798 5795 5792 5789 5785 5782 5778 5775 5771 5766 5762 5757 5754 5750 5746 5742 5738 5735 5732 5729 5727 5725 5723 5721 5720 5719 5718 5718 5718 5717 5718 5719 5721
5808 5807 5806 5804 5802 5800 5798 5795 5793 5790 5787 5785 5781 5778 5774 5769 5765 5762 5758 5752 5747 5742 5738 5734 5729 5725 5720 5717 5714 5711 5709 5707 5705 5703 5702 5701 5699 5699 5698 5699 5699 5700 5702
5802 5801 5799 5797 5795 5792 5789 5786 5783 5780 5777 5773 5769 5765 5761 5756 5751 5747 5744 5739 5733 5726 5721 5716 5711 5706 5701 5698 5695 5692 5689 5687 5685 5684 5682 5681 5680 5679 5679 5679 5679 5681 5682
5796 5794 5792 5790 5787 5783 5780 5776 5773 5769 5765 5761 5756 5751 5747 5742 5737 5732 5728 5725 5720 5713 5705 5698 5692 5687 5682 5678 5675 5671 5668 5665 5663 5662 5660 5658 5658 5657 5657 5658 5659 5660 5662
5789 5787 5785 5782 5778 5774 5770 5766 5762 5758 5753 5748 5743 5738 5732 5727 5721 5716 5711 5707 5704 5699 5692 5682 5673 5666 5661 5657 5653 5649 5645 5642 5639 5637 5635 5634 5633 5633 5633 5634 5636 5638 5640
5782 5779 5776 5772 5768 5764 5760 5756 5751 5747 5741 5736 5730 5724 5717 5711 5705 5699 5693 5688 5684 5682 5676 5668 5657 5646 5640 5636 5631 5626 5622 5618 5615 5612 5610 5609 5608 5608 5608 5609 5611 5614 5617
5773 5770 5766 5762 5758 5754 5749 5744 5739 5734 5728 5722 5716 5709 5703 5696 5689 5682 5675 5669 5663 5661 5659 5650 5639 5629 5620 5615 5609 5603 5599 5595 5591 5588 5585 5583 5582 5582 5582 5583 5585 5588 5593
5764 5760 5756 5752 5747 5742 5737 5731 5726 5720 5714 5708 5701 5695 5688 5681 5674 5666 5658 5650 5642 5637 5635 5630 5619 5610 5600 5593 5587 5581 5576 5572 5567 5563 5561 5558 5557 5556 5556 5557 5559 5563 5567
5753 5749 5744 5740 5735 5729 5724 5718 5712 5706 5700 5694 5687 5680 5672 5665 5657 5649 5641 5632 5624 5616 5613 5609 5598 5589 5579 5571 5565 5559 5555 5551 5547 5543 5540 5537 5536 5534 5534 5535 5536 5539 5544
5741 5736 5732 5727 5721 5716 5710 5704 5698 5692 5686 5679 5672 5665 5657 5650 5642 5633 5625 5616 5607 5598 5591 5586 5579 5569 5560 5552 5547 5542 5538 5534 5531 5527 5524 5522 5520 5519 5518 5518 5519 5522 5525
5728 5723 5718 5713 5708 5702 5696 5690 5684 5678 5671 5664 5657 5650 5643 5635 5627 5619 5610 5600 5591 5581 5572 5565 5560 5552 5545 5538 5533 5530 5526 5522 5518 5515 5513 5510 5508 5507 5507 5507 5507 5509 5512
5715 5710 5704 5699 5694 5688 5682 5676 5670 5664 5657 5650 5643 5636 5629 5621 5614 5605 5596 5585 5576 5567 5559 5551 5545 5539 5534 5529 5525 5521 5518 5514 5510 5507 5505 5502 5500 5499 5499 5498 5499 5500 5503
5701 5696 5691 5685 5680 5675 5669 5664 5657 5651 5645 5638 5630 5622 5615 5607 5599 5591 5582 5573 5564 5556 5549 5542 5537 5532 5528 5523 5519 5516 5513 5509 5505 5502 5500 5497 5495 5494 5492 5492 5492 5494 5495
5688 5683 5678 5673 5668 5662 5657 5651 5645 5638 5632 5626 5619 5611 5603 5595 5587 5579 5571 5563 5555 5549 5543 5538 5533 5528 5524 5520 5516 5512 5509 5506 5502 5499 5496 5493 5491 5489 5488 5488 5488 5488 5490
5675 5670 5665 5660 5655 5650 5645 5639 5632 5626 5620 5614 5607 5600 5592 5585 5578 5571 5564 5557 5551 5545 5540 5535 5531 5526 5522 5518 5514 5510 5506 5503 5499 5496 5494 5491 5489 5487 5486 5485 5485 5485 5486
5663 5658 5653 5648 5643 5638 5633 5627 5621 5615 5608 5602 5596 5590 5584 5577 5571 5565 5560 5554 5549 5544 5539 5534 5529 5524 5520 5515 5511 5507 5504 5500 5497 5494 5492 5490 5487 5486 5484 5483 5483 5483 5483
5651 5646 5641 5636 5631 5626 5621 5615 5609 5603 5597 5591 5586 5581 5576 5571 5566 5561 5557 5552 5548 5543 5537 5532 5527 5522 5517 5513 5508 5505 5501 5498 5494 5492 5489 5488 5486 5484 5483 5482 5481 5481 5481
5639 5634 5629 5624 5619 5614 5608 5603 5598 5592 5587 5583 5578 5574 5570 5566 5562 5558 5554 5550 5546 5541 5535 5530 5525 5520 5515 5510 5506 5502 5497 5494 5491 5488 5486 5485 5484 5483 5482 5481 5480 5479 5479